Date String (YYYY-MM-DD hh:mm:ss) UTC,Instrument flags,Ambient pressure (hPa),Sample flow (lpm),Bypass flow (lpm),Sample temperature (°C),Ambient temperature (°C),ASC tube jacket temperature (°C),LED temperature (°C),Box temperature (°C),Sample RH (%),Span deviation,Mass concentration (μg/m³),Mass concentration (μg/m³),Mass concentration (μg/m³)
DateTimeUTC,F1_M11,P_M11,Q1_M11,Q2_M11,T1_M11,T2_M11,T3_M11,T4_M11,T5_M11,U1_M11,ZSPAN_M11,X0_M11,X2_M11,X1_M11
2022-09-09 17:00:00,,0827.3,4.99,0.00,30.9,29.6,00.0,39.7,32.6,23.0,0003.6,0018.05,0012.23,0011.35
2022-09-09 17:01:00,,0827.4,5.00,0.00,30.9,29.6,00.0,39.7,32.7,22.9,0003.3,0017.87,0012.22,0011.36
2022-09-09 17:02:00,,0827.4,5.00,0.00,30.9,29.6,00.0,39.7,32.7,22.9,0003.1,0017.16,0012.22,0011.35
2022-09-09 17:03:00,,0827.4,5.00,0.00,30.9,29.6,00.0,39.7,32.7,22.9,0002.8,0017.98,0012.29,0011.37
2022-09-09 17:04:00,,0827.4,5.00,0.00,30.9,29.6,00.0,39.7,32.7,22.9,0002.7,0019.40,0012.28,0011.38
2022-09-09 17:05:00,,0827.3,5.00,0.00,30.9,29.6,00.0,39.7,32.7,22.8,0002.7,0019.42,0012.28,0011.40
2022-09-09 17:06:00,,0827.2,5.00,0.00,30.9,29.6,00.0,39.7,32.7,22.7,0003.1,0018.62,0012.28,0011.43
2022-09-09 17:07:00,,0827.3,5.00,0.00,30.9,29.6,00.0,39.7,32.7,22.8,0003.1,0018.19,0012.27,0011.46
2022-09-09 17:08:00,,0827.4,5.01,0.00,30.9,29.6,00.0,39.7,32.7,22.9,0003.2,0018.31,0012.32,0011.48
2022-09-09 17:09:00,,0827.4,5.00,0.00,30.9,29.7,00.0,39.7,32.7,22.8,0002.9,0018.51,0012.37,0011.52
2022-09-09 17:10:00,,0827.3,5.00,0.00,30.9,29.6,00.0,39.7,32.7,22.7,0002.4,0018.45,0012.39,0011.54
2022-09-09 17:11:00,,0827.2,5.01,0.00,30.9,29.6,00.0,39.7,32.7,22.7,0002.5,0018.97,0012.41,0011.56
2022-09-09 17:12:00,,0827.3,5.00,0.00,30.9,29.6,00.0,39.7,32.7,22.7,0003.0,0019.32,0012.39,0011.58
2022-09-09 17:13:00,,0827.3,5.01,0.00,30.9,29.6,00.0,39.7,32.7,22.7,0003.0,0019.43,0012.42,0011.60
2022-09-09 17:14:00,,0827.3,4.98,0.00,30.9,29.6,00.0,39.7,32.7,22.7,0003.1,0019.20,0012.44,0011.61
2022-09-09 17:15:00,,0827.4,5.01,0.00,30.9,29.7,00.0,39.7,32.7,22.7,0003.2,0018.65,0012.50,0011.63
2022-09-09 17:16:00,,0827.4,5.01,0.00,30.9,29.6,00.0,39.7,32.7,22.7,0003.1,0018.61,0012.55,0011.63
2022-09-09 17:17:00,,0827.3,4.99,0.00,30.9,29.6,00.0,39.8,32.7,22.7,0002.7,0018.79,0012.61,0011.63
2022-09-09 17:18:00,,0827.2,5.00,0.00,30.9,29.7,00.0,39.8,32.7,22.7,0002.5,0018.97,0012.61,0011.63
2022-09-09 17:19:00,,0827.3,5.01,0.00,30.9,29.7,00.0,39.8,32.7,22.7,0002.2,0018.95,0012.60,0011.63
2022-09-09 17:20:00,,0827.3,5.00,0.00,30.9,29.7,00.0,39.8,32.7,22.7,0002.3,0019.60,0012.60,0011.62
2022-09-09 17:21:00,,0827.4,4.99,0.00,30.9,29.7,00.0,39.8,32.7,22.7,0002.3,0019.76,0012.62,0011.63
2022-09-09 17:22:00,,0827.4,5.00,0.00,31.0,29.7,00.0,39.8,32.7,22.8,0002.2,0019.16,0012.58,0011.61
2022-09-09 17:23:00,,0827.4,5.00,0.00,31.0,29.7,00.0,39.8,32.7,22.8,0001.9,0018.97,0012.60,0011.60
2022-09-09 17:24:00,,0827.3,5.00,0.00,31.0,29.7,00.0,39.8,32.7,22.8,0001.6,0019.12,0012.58,0011.57
2022-09-09 17:25:00,,0827.2,5.01,0.00,31.0,29.7,00.0,39.8,32.8,22.9,0001.7,0019.55,0012.51,0011.54
2022-09-09 17:26:00,,0827.2,5.00,0.00,31.0,29.7,00.0,39.8,32.7,22.9,0002.0,0018.87,0012.45,0011.51
2022-09-09 17:27:00,,0827.3,5.00,0.00,31.0,29.7,00.0,39.8,32.7,22.9,0002.3,0018.75,0012.41,0011.51
2022-09-09 17:28:00,,0827.4,5.00,0.00,31.0,29.7,00.0,39.8,32.7,22.9,0002.3,0018.72,0012.39,0011.52
2022-09-09 17:29:00,,0827.4,4.98,0.00,31.0,29.7,00.0,39.8,32.7,22.9,0002.6,0018.86,0012.40,0011.56
2022-09-09 17:30:00,,0827.4,5.01,0.00,31.0,29.7,00.0,39.8,32.8,22.9,0002.7,0019.20,0012.45,0011.61
2022-09-09 17:31:00,,0827.2,5.01,0.00,31.0,29.7,00.0,39.8,32.8,23.0,0002.7,0018.78,0012.49,0011.66
2022-09-09 17:32:00,,0827.3,4.99,0.00,31.0,29.7,00.0,39.8,32.8,22.8,0002.4,0018.69,0012.58,0011.74
2022-09-09 17:33:00,,0827.4,5.00,0.00,31.0,29.7,00.0,39.8,32.8,22.8,0002.3,0018.91,0012.67,0011.82
2022-09-09 17:34:00,,0827.3,5.00,0.00,31.0,29.7,00.0,39.8,32.8,22.9,0002.2,0018.95,0012.76,0011.89
2022-09-09 17:35:00,,0827.3,4.99,0.00,31.0,29.8,00.0,39.8,32.8,23.0,0002.5,0019.50,0012.88,0012.00
2022-09-09 17:36:00,,0827.2,5.01,0.00,31.0,29.8,00.0,39.8,32.8,22.9,0002.6,0018.81,0012.99,0012.11
2022-09-09 17:37:00,,0827.3,4.99,0.00,31.0,29.7,00.0,39.8,32.8,22.8,0002.6,0018.41,0013.10,0012.22
2022-09-09 17:38:00,,0827.3,5.00,0.00,31.0,29.7,00.0,39.8,32.8,22.9,0002.5,0018.84,0013.20,0012.30
2022-09-09 17:39:00,,0827.3,5.00,0.00,31.0,29.8,00.0,39.8,32.8,23.2,0002.3,0019.16,0013.24,0012.35
2022-09-09 17:40:00,,0827.3,5.00,0.00,31.0,29.8,00.0,39.9,32.8,23.2,0002.1,0019.64,0013.23,0012.34
2022-09-09 17:41:00,,0827.2,5.01,0.00,31.0,29.7,00.0,39.9,32.8,23.1,0001.9,0019.61,0013.22,0012.33
2022-09-09 17:42:00,,0827.2,4.98,0.00,31.0,29.7,00.0,39.9,32.8,23.1,0002.0,0019.39,0013.21,0012.32
2022-09-09 17:43:00,,0827.2,5.00,0.00,31.0,29.7,00.0,39.9,32.8,23.2,0002.1,0019.23,0013.13,0012.25
2022-09-09 17:44:00,,0827.2,5.00,0.00,31.0,29.7,00.0,39.9,32.8,23.2,0002.2,0018.86,0013.00,0012.15
2022-09-09 17:45:00,,0827.2,5.01,0.00,31.1,29.8,00.0,39.9,32.8,23.2,0002.6,0018.70,0012.94,0012.13
2022-09-09 17:46:00,,0827.2,5.00,0.00,31.1,29.8,00.0,39.9,32.8,23.2,0002.5,0018.10,0012.87,0012.08
2022-09-09 17:47:00,,0827.3,5.00,0.00,31.1,29.7,00.0,39.9,32.9,23.0,0002.4,0018.03,0012.88,0012.07
2022-09-09 17:48:00,,0827.3,5.00,0.00,31.1,29.8,00.0,39.9,32.9,23.0,0002.4,0017.86,0012.85,0012.06
2022-09-09 17:49:00,,0827.3,5.00,0.00,31.1,29.8,00.0,39.9,32.9,23.1,0002.5,0017.58,0012.84,0012.07
2022-09-09 17:50:00,,0827.3,4.99,0.00,31.1,29.8,00.0,39.9,32.8,23.0,0002.6,0017.35,0012.89,0012.10
2022-09-09 17:51:00,,0827.3,5.00,0.00,31.1,29.8,00.0,39.9,32.9,23.1,0002.6,0016.83,0012.97,0012.15
2022-09-09 17:52:00,,0827.3,5.00,0.00,31.1,29.8,00.0,39.9,32.9,23.1,0002.8,0016.56,0013.02,0012.21
2022-09-09 17:53:00,,0827.2,5.00,0.00,31.1,29.8,00.0,39.9,32.9,23.0,0002.3,0016.61,0013.05,0012.26
2022-09-09 17:54:00,,0827.2,5.00,0.00,31.1,29.8,00.0,39.9,32.9,22.9,0002.4,0016.80,0013.18,0012.35
2022-09-09 17:55:00,,0827.3,4.99,0.00,31.1,29.8,00.0,39.9,32.9,22.8,0002.4,0017.07,0013.34,0012.46
2022-09-09 17:56:00,,0827.2,5.00,0.00,31.1,29.8,00.0,39.9,32.9,22.6,0001.9,0017.32,0013.45,0012.50
2022-09-09 17:57:00,,0827.2,5.01,0.00,31.1,29.9,00.0,39.9,32.9,22.4,0002.1,0017.52,0013.53,0012.56
2022-09-09 17:58:00,,0827.1,4.98,0.00,31.1,29.8,00.0,39.9,32.9,22.4,0001.8,0017.48,0013.54,0012.59
2022-09-09 17:59:00,,0827.1,5.00,0.00,31.1,29.8,00.0,39.9,32.9,22.5,0001.3,0017.94,0013.56,0012.59
